Stations météo

réclame
Mon MeteoGroup
Ueckermünde, Allemagne (10193): Température de l'air & dewpoint: 13.07.2019 21:00:00 - 19.07.2019 21:00:00 (CEST)Ueckermünde, Allemagne (10193): Température de l'air 5cm & Température de l'air -5cm: 13.07.2019 21:00:00 - 19.07.2019 21:00:00 (CEST)Ueckermünde, Allemagne (10193): Température de l'air -20cm & Température de l'air -100cm: 13.07.2019 21:00:00 - 19.07.2019 21:00:00 (CEST)Ueckermünde, Allemagne (10193): Vitesse du vent & gusts: 13.07.2019 21:00:00 - 19.07.2019 21:00:00 (CEST)Ueckermünde, Allemagne (10193): Direction du vent: 13.07.2019 21:00:00 - 19.07.2019 21:00:00 (CEST)Ueckermünde, Allemagne (10193): reduced air pressure: 13.07.2019 21:00:00 - 19.07.2019 21:00:00 (CEST)Ueckermünde, Allemagne (10193): visibility: 13.07.2019 21:00:00 - 19.07.2019 21:00:00 (CEST)Ueckermünde, Allemagne (10193): Ensoleillement: 13.07.2019 21:00:00 - 19.07.2019 21:00:00 (CEST)Ueckermünde, Allemagne (10193): Quantités de précipitations: 13.07.2019 21:00:00 - 19.07.2019 21:00:00 (CEST)
Date & Time tt [°C] td [°C] tt 5cm [°C] tt -5cm [°C] tt -20cm [°C] tt -100cm [°C] ff [km/h] ff [knt] fx [km/h] fx [knt] dd ppp [hPa] vv [km] sd [min] rr [mm]
19.07.2019 21:00:00 - - - - - - - - - - - - - - -
19.07.2019 20:00:00 21,5 13,9 21,7 26,4 23,8 18,0 8 5 12 7 SW 1013,2 56 24 0,0
19.07.2019 19:00:00 21,9 13,4 22,6 26,6 23,9 18,0 8 4 25 13 SW 1013,1 55 0 0,0
19.07.2019 18:00:00 22,4 15,9 23,6 27,7 23,8 18,0 6 4 25 13 NW 1012,7 33 0 0,0
19.07.2019 17:00:00 23,2 15,2 24,9 29,7 23,7 18,0 9 5 22 12 NW 1012,5 42 0 0,0
19.07.2019 16:00:00 24,6 15,1 27,7 30,0 23,5 18,0 6 3 17 9 W 1012,4 38 0 0,0
19.07.2019 15:00:00 24,5 12,8 27,2 31,3 23,1 18,0 8 4 15 8 NW 1012,3 58 8 0,0
19.07.2019 14:00:00 25,0 13,4 29,6 31,2 22,8 18,0 10 5 15 8 NNE 1012,2 66 6 0,0
19.07.2019 13:00:00 23,5 14,5 27,4 30,7 22,3 18,0 11 6 16 9 ENE 1012,1 49 6 0,0
19.07.2019 12:00:00 23,7 14,2 29,5 30,1 21,9 18,0 10 5 16 8 ENE 1012,1 42 15 0,0
19.07.2019 11:00:00 21,8 15,5 25,8 29,8 21,4 18,0 11 6 16 9 NE 1012,2 40 47 0,0
19.07.2019 10:00:00 22,9 13,0 28,0 26,8 21,1 17,9 9 5 13 7 NNE 1011,9 47 60 0,0
19.07.2019 09:00:00 22,8 11,9 25,8 22,8 21,1 17,9 4 2 8 5 S 1011,8 50 59 0,0
19.07.2019 08:00:00 17,5 13,6 18,2 20,0 21,2 17,9 3 2 5 3 S 1011,8 55 2 0,0
19.07.2019 07:00:00 16,8 12,2 16,8 19,3 21,3 17,9 3 2 6 4 ESE 1011,7 53 0 0,0
19.07.2019 06:00:00 15,5 12,0 15,0 18,9 21,6 17,9 2 1 5 3 ESE 1011,9 47 0 0,0
19.07.2019 05:00:00 15,2 11,9 14,1 18,8 21,8 17,9 0 0 6 3 N 1012,0 46 0 0,0
19.07.2019 04:00:00 16,0 11,9 13,4 19,0 22,1 17,9 4 2 10 5 SE 1012,3 49 0 0,0
19.07.2019 03:00:00 16,5 12,1 14,8 19,3 22,4 17,9 5 3 14 7 E 1012,4 68 0 0,0
19.07.2019 02:00:00 17,1 12,5 15,3 19,7 22,7 17,9 6 3 14 8 ESE 1012,6 70 0 0,0
19.07.2019 01:00:00 17,5 13,0 15,8 20,3 23,1 17,9 8 4 14 8 E 1012,6 70 0 0,0
19.07.2019 00:00:00 18,1 12,9 16,7 21,1 23,5 17,9 9 5 18 10 E 1012,6 70 0 0,0
18.07.2019 23:00:00 18,9 13,4 17,4 22,2 23,8 17,9 9 5 20 11 E 1012,5 70 0 0,0
18.07.2019 22:00:00 19,8 15,0 18,7 23,6 24,1 17,9 10 6 23 12 E 1012,5 70 0 0,0
18.07.2019 21:00:00 20,3 15,2 19,6 25,8 24,3 17,9 13 7 24 13 ENE 1012,3 59 27 0,0
18.07.2019 20:00:00 21,3 14,5 21,8 28,7 24,4 17,9 16 9 25 13 ENE 1012,2 70 60 0,0
18.07.2019 19:00:00 22,4 14,6 24,4 31,3 24,3 17,9 14 8 22 12 ENE 1012,3 45 60 0,0
18.07.2019 18:00:00 22,9 13,5 25,7 32,7 24,0 17,9 17 9 26 14 ENE 1012,3 33 60 0,0
18.07.2019 17:00:00 23,1 12,2 26,6 34,5 23,5 17,9 12 7 24 13 ENE 1012,5 29 60 0,0
18.07.2019 16:00:00 24,0 12,1 28,8 35,3 22,9 17,9 12 6 21 12 NE 1012,9 41 60 0,0
18.07.2019 15:00:00 24,1 13,4 30,1 34,7 22,3 17,9 14 8 23 12 NE 1013,2 30 60 0,0
18.07.2019 14:00:00 22,8 10,9 28,6 33,4 21,6 17,9 15 8 23 13 NE 1013,4 40 60 0,0
18.07.2019 13:00:00 21,3 13,3 27,6 31,8 20,9 17,9 14 8 22 12 NE 1013,6 39 60 0,0
18.07.2019 12:00:00 20,0 12,9 25,7 29,9 20,2 17,9 16 8 20 11 NE 1013,8 43 60 0,0
18.07.2019 11:00:00 19,5 12,5 25,6 27,3 19,7 17,9 14 7 18 10 NE 1014,0 42 60 0,0
18.07.2019 10:00:00 19,1 11,5 24,2 24,7 19,3 17,9 10 5 14 8 NE 1014,0 45 60 0,0
18.07.2019 09:00:00 18,2 11,3 22,4 21,4 19,1 17,9 6 3 11 6 W 1014,1 41 60 0,0
18.07.2019 08:00:00 16,2 11,3 18,6 18,5 19,2 17,9 7 4 10 6 SSW 1014,0 29 60 0,0
18.07.2019 07:00:00 13,7 11,3 14,7 15,5 19,4 17,9 2 1 7 4 SSW 1013,8 36 60 0,0
18.07.2019 06:00:00 8,0 7,7 6,5 14,3 19,8 17,9 5 3 6 3 SSW 1013,9 6 8 0,0
18.07.2019 05:00:00 7,7 7,2 5,2 14,6 20,1 17,9 4 2 6 3 SSW 1014,0 25 0 0,0
18.07.2019 04:00:00 8,2 8,0 5,2 15,1 20,5 17,9 5 3 7 4 S 1013,8 23 0 0,0
18.07.2019 03:00:00 8,5 8,0 5,8 15,7 20,9 17,9 5 3 6 3 SSW 1014,0 1,5 0 0,0
18.07.2019 02:00:00 10,1 9,9 6,6 16,5 21,3 17,9 4 2 6 3 S 1014,3 27 0 0,0
18.07.2019 01:00:00 10,9 10,3 7,1 17,2 21,7 17,9 4 2 5 3 S 1014,3 30 0 0,0
18.07.2019 00:00:00 11,1 10,5 7,8 18,3 22,1 17,9 4 2 5 3 S 1014,2 19 0 0,0
17.07.2019 23:00:00 12,3 10,5 8,8 19,8 22,4 17,9 4 2 9 5 S 1014,1 47 0 0,0
17.07.2019 22:00:00 16,2 12,0 14,2 21,7 22,7 17,9 7 4 16 9 NE 1014,1 70 7 0,0
17.07.2019 21:00:00 17,3 11,8 16,8 24,3 22,9 17,9 11 6 19 10 NE 1014,0 70 60 0,0
17.07.2019 20:00:00 18,5 11,0 20,1 27,0 22,9 17,9 10 6 21 11 NE 1013,8 70 60 0,0
17.07.2019 19:00:00 19,3 11,3 22,0 29,4 22,6 17,9 13 7 19 11 NE 1013,6 49 60 0,0
17.07.2019 18:00:00 20,2 12,6 23,8 30,7 22,3 18,0 11 6 22 12 NE 1013,9 46 60 0,0
17.07.2019 17:00:00 20,4 12,7 24,1 31,5 21,7 18,0 14 8 24 13 NE 1014,0 65 60 0,0
17.07.2019 16:00:00 20,9 12,8 26,1 31,9 21,1 18,0 13 7 24 13 NE 1014,0 37 60 0,0
17.07.2019 15:00:00 20,0 12,3 26,2 31,0 20,4 18,0 10 5 16 9 ENE 1013,8 33 60 0,0
17.07.2019 14:00:00 21,0 13,0 27,0 27,3 20,0 18,0 10 5 17 9 NNE 1013,9 34 30 0,0
17.07.2019 13:00:00 19,1 12,1 22,4 24,3 19,8 18,0 7 4 14 7 NNE 1014,1 69 0 0,0
17.07.2019 12:00:00 18,4 12,7 20,6 23,3 19,5 18,0 9 5 16 9 N 1014,0 63 3 0,0
17.07.2019 11:00:00 18,0 12,5 20,2 23,9 19,1 18,0 5 3 18 10 NNW 1013,9 57 24 0,0
17.07.2019 10:00:00 18,4 13,4 23,4 22,6 18,8 18,0 13 7 22 12 NW 1013,9 38 60 0,0
17.07.2019 09:00:00 16,9 13,6 19,9 18,8 18,8 18,0 12 7 21 11 WNW 1013,9 16 29 0,0
17.07.2019 08:00:00 14,8 13,3 15,2 16,8 18,9 18,0 12 7 24 13 WNW 1013,8 14 11 0,0
17.07.2019 07:00:00 14,1 13,2 14,2 16,2 19,0 18,0 10 6 26 14 W 1013,7 9 4 0,0
17.07.2019 06:00:00 13,5 12,7 12,9 15,8 19,2 18,0 12 7 23 12 W 1013,5 8 0 0,0
17.07.2019 05:00:00 13,2 12,5 12,4 15,7 19,4 18,0 11 6 22 12 W 1013,2 9 0 0,0
17.07.2019 04:00:00 13,6 12,7 12,7 16,0 19,6 18,0 12 6 22 12 W 1013,1 11 0 0,0
17.07.2019 03:00:00 13,8 12,8 12,7 16,2 19,9 18,0 14 8 24 13 WNW 1013,2 11 0 0,0
17.07.2019 02:00:00 14,0 12,6 12,7 16,4 20,1 18,0 15 8 22 12 WNW 1013,3 15 0 0,0
17.07.2019 01:00:00 14,2 12,0 12,9 16,9 20,4 18,0 13 7 21 12 WNW 1013,2 23 0 0,0
17.07.2019 00:00:00 14,9 12,0 13,2 17,3 20,7 18,0 10 6 17 9 W 1013,1 27 0 0,0
16.07.2019 23:00:00 14,7 11,7 12,7 18,2 21,0 18,0 10 5 23 12 W 1013,1 28 0 0,0
16.07.2019 22:00:00 15,7 11,5 14,0 19,5 21,1 18,0 11 6 25 14 W 1012,9 34 0 0,0
16.07.2019 21:00:00 17,0 11,5 16,1 21,4 21,2 18,0 15 8 34 18 WNW 1012,9 45 58 0,0
16.07.2019 20:00:00 18,3 11,0 19,1 23,2 21,2 18,0 16 9 33 18 WNW 1012,7 54 60 0,0
16.07.2019 19:00:00 18,9 11,2 21,0 24,2 21,1 18,0 19 10 34 19 WNW 1012,5 41 31 0,0
16.07.2019 18:00:00 18,8 10,6 20,9 24,8 20,9 18,1 19 11 37 20 WNW 1012,4 59 31 0,0
16.07.2019 17:00:00 18,4 11,3 20,2 24,5 20,7 18,1 19 10 37 20 NW 1012,4 52 14 0,0
16.07.2019 16:00:00 19,8 11,1 23,4 24,3 20,5 18,1 21 11 36 20 WNW 1012,2 70 9 0,0
16.07.2019 15:00:00 18,2 11,7 20,9 23,8 20,3 18,1 8 5 27 15 W 1012,4 70 1 0,0
16.07.2019 14:00:00 17,7 12,2 20,5 22,4 20,2 18,1 16 9 27 15 W 1012,7 49 1 0,0
16.07.2019 13:00:00 14,7 13,0 15,0 20,8 20,1 18,1 16 9 35 19 W 1013,0 22 0 0,0
16.07.2019 12:00:00 16,8 12,4 18,3 21,1 20,0 18,1 16 9 29 15 W 1012,6 42 0 0,0
16.07.2019 11:00:00 16,6 12,1 17,9 21,7 19,9 18,1 17 9 31 17 W 1012,4 38 3 0,0
16.07.2019 10:00:00 17,9 12,3 20,9 21,4 19,8 18,1 18 10 29 16 W 1012,0 36 14 0,0
16.07.2019 09:00:00 16,4 12,6 17,9 19,7 19,8 18,1 11 6 29 16 W 1011,9 24 0 0,0
16.07.2019 08:00:00 15,6 12,4 16,5 18,7 19,8 18,1 17 9 29 16 W 1011,9 23 1 0,0
16.07.2019 07:00:00 15,3 12,3 16,4 17,8 19,9 18,1 14 8 30 16 W 1011,9 20 2 0,0
16.07.2019 06:00:00 14,8 11,4 14,8 17,7 20,1 18,1 17 9 30 16 W 1011,7 24 0 0,0
16.07.2019 05:00:00 14,6 10,6 14,6 17,6 20,3 18,1 18 10 29 16 WSW 1011,9 35 0 0,0
16.07.2019 04:00:00 14,5 10,1 14,2 17,9 20,4 18,1 16 8 27 15 WSW 1012,2 39 0 0,0
16.07.2019 03:00:00 14,7 9,9 14,5 18,1 20,6 18,1 16 9 27 15 WSW 1012,5 38 0 0,0
16.07.2019 02:00:00 14,9 9,5 14,7 18,4 20,8 18,0 19 10 32 17 WSW 1012,8 36 0 0,0
16.07.2019 01:00:00 15,2 8,4 14,9 18,6 21,0 18,0 16 9 24 13 WSW 1013,1 38 0 0,0
16.07.2019 00:00:00 15,5 7,8 15,1 19,0 21,2 18,0 13 7 29 16 WSW 1013,3 43 0 0,0
15.07.2019 23:00:00 15,8 8,7 15,6 19,5 21,4 18,0 14 8 24 13 WSW 1013,7 36 0 0,0
15.07.2019 22:00:00 16,0 8,8 15,8 20,2 21,6 18,0 12 7 26 14 SW 1013,8 37 0 0,0
15.07.2019 21:00:00 16,5 9,1 16,4 21,2 21,7 18,0 15 8 31 17 WSW 1013,7 39 0 0,0
15.07.2019 20:00:00 17,1 9,7 17,4 22,3 21,8 18,0 19 11 33 18 WSW 1013,9 39 0 0,0
15.07.2019 19:00:00 18,0 9,1 18,6 24,0 21,7 18,0 19 10 30 16 WSW 1013,9 46 3 0,0
15.07.2019 18:00:00 18,4 8,6 20,4 24,9 21,5 18,0 16 8 31 17 WSW 1014,2 41 18 0,0
15.07.2019 17:00:00 17,5 9,5 19,8 24,0 21,4 18,0 13 7 32 17 W 1014,7 39 0 0,0
15.07.2019 16:00:00 17,5 9,4 19,9 23,3 21,4 18,0 16 9 26 14 WSW 1015,1 41 1 0,0
15.07.2019 15:00:00 16,2 10,0 17,4 22,8 21,3 18,0 19 11 27 15 WSW 1015,4 49 0 0,0
15.07.2019 14:00:00 15,9 11,1 17,9 22,3 21,3 18,0 16 8 26 14 WSW 1015,6 50 0 0,0
15.07.2019 13:00:00 16,0 10,3 18,0 23,2 21,2 18,0 16 8 33 18 W 1015,7 58 0 0,0
15.07.2019 12:00:00 16,6 11,4 19,2 22,6 21,1 18,0 16 9 25 14 WSW 1015,7 70 0 0,0
15.07.2019 11:00:00 15,9 11,2 17,3 22,0 21,1 18,0 14 8 24 13 W 1015,9 70 1 0,0
15.07.2019 10:00:00 16,2 10,9 17,5 21,6 21,1 18,0 13 7 22 12 WSW 1015,8 70 0 0,0
15.07.2019 09:00:00 15,7 10,6 17,0 20,5 21,1 17,9 13 7 22 12 WSW 1015,8 70 0 0,0
15.07.2019 08:00:00 15,8 11,6 17,0 19,9 21,2 17,9 8 5 17 9 WSW 1015,7 43 0 0,0
15.07.2019 07:00:00 15,4 11,6 16,0 19,4 21,4 17,9 7 4 13 7 WSW 1015,8 35 0 0,0
15.07.2019 06:00:00 15,1 11,4 15,2 19,2 21,6 17,9 8 4 12 7 WSW 1016,0 33 0 0,0
15.07.2019 05:00:00 15,1 11,3 15,0 19,3 21,8 17,9 8 4 13 7 WSW 1016,0 36 0 0,0
15.07.2019 04:00:00 15,2 11,4 15,0 19,5 22,1 17,9 6 3 12 6 WSW 1016,2 41 0 0,0
15.07.2019 03:00:00 15,3 11,4 15,2 19,8 22,3 17,9 7 4 10 6 WSW 1016,6 44 0 0,0
15.07.2019 02:00:00 15,2 11,5 15,0 20,0 22,6 17,9 5 3 13 7 WSW 1016,7 44 0 0,0
15.07.2019 01:00:00 15,5 11,1 15,0 20,3 22,9 17,9 9 5 19 10 W 1016,8 55 0 0,0
15.07.2019 00:00:00 16,4 11,7 16,3 21,3 23,2 17,9 12 6 25 13 WNW 1017,0 65 0 0,0
14.07.2019 23:00:00 17,0 12,0 17,1 22,1 23,5 17,9 10 6 23 13 NW 1016,8 63 0 0,0
14.07.2019 22:00:00 17,8 13,4 17,9 22,9 23,8 17,9 11 6 23 12 N 1016,6 53 0 0,0
14.07.2019 21:00:00 18,0 14,5 18,3 23,9 24,0 17,8 13 7 22 12 NNE 1016,2 41 0 0,0
14.07.2019 20:00:00 18,2 14,4 18,3 25,6 24,2 17,8 16 9 27 14 NNE 1015,9 33 3 0,0
14.07.2019 19:00:00 18,9 14,6 20,0 27,9 24,2 17,8 19 10 29 15 NNE 1015,7 30 31 0,0
14.07.2019 18:00:00 19,5 14,6 21,8 30,2 24,0 17,8 18 10 29 16 NNE 1015,7 25 48 0,0
14.07.2019 17:00:00 20,2 15,0 23,8 31,5 23,6 17,8 21 11 30 16 NNE 1015,7 22 59 0,0
14.07.2019 16:00:00 21,2 15,2 26,7 32,3 23,0 17,8 16 9 28 15 NNE 1015,7 21 60 0,0
14.07.2019 15:00:00 21,5 15,3 27,7 31,5 22,5 17,8 15 8 23 12 N 1015,8 29 39 0,0
14.07.2019 14:00:00 21,0 14,0 28,5 31,1 21,8 17,8 10 6 23 12 NW 1015,8 24 60 0,0
14.07.2019 13:00:00 20,9 14,3 26,8 29,2 21,3 17,8 14 8 24 13 WNW 1015,9 26 60 0,0
14.07.2019 12:00:00 19,5 14,7 25,2 26,5 21,0 17,8 14 8 26 14 WNW 1015,8 25 57 0,0
14.07.2019 11:00:00 18,6 14,9 22,4 22,2 20,9 17,8 16 9 26 14 WNW 1015,9 24 14 0,0
14.07.2019 10:00:00 17,6 14,7 18,0 20,4 21,0 17,7 13 7 27 15 NW 1015,8 26 0 0,0
14.07.2019 09:00:00 16,9 15,4 17,1 19,5 21,1 17,7 11 6 22 12 WNW 1015,2 16 0 0,3
14.07.2019 08:00:00 16,3 15,0 16,4 19,7 21,2 17,7 14 7 24 13 WNW 1014,9 12 0 0,4
14.07.2019 07:00:00 16,0 14,5 16,4 19,5 21,4 17,7 13 7 22 12 WNW 1014,5 14 0 0,0
14.07.2019 06:00:00 15,7 14,3 15,8 19,1 21,6 17,7 14 8 24 13 WNW 1014,3 17 0 0,0
14.07.2019 05:00:00 15,5 14,0 15,4 19,1 21,8 17,7 14 7 23 12 WNW 1014,2 20 0 0,0
14.07.2019 04:00:00 15,8 14,0 15,6 19,1 22,1 17,7 14 8 23 12 WNW 1014,0 23 0 0,0
14.07.2019 03:00:00 15,5 13,4 14,6 19,1 22,5 17,7 12 6 21 11 W 1013,8 27 0 0,0
14.07.2019 02:00:00 14,9 12,1 13,9 19,5 22,9 17,7 8 4 10 6 WSW 1014,0 42 0 0,0
14.07.2019 01:00:00 13,7 11,7 11,4 19,9 23,3 17,7 4 2 8 4 SW 1014,1 23 0 0,0
14.07.2019 00:00:00 13,9 12,0 12,5 20,8 23,7 17,6 5 3 6 3 S 1014,1 27 0 0,0
13.07.2019 23:00:00 14,6 12,5 11,7 22,0 24,1 17,6 3 2 8 4 W 1014,0 45 0 0,0
13.07.2019 22:00:00 18,5 12,8 16,9 23,7 24,4 17,6 6 3 14 8 NE 1014,0 70 5 0,0
13.07.2019 21:00:00 19,2 12,2 18,5 25,9 24,7 17,6 9 5 17 9 NE 1013,6 70 45 0,0

tt = Température de l'air
td = dewpoint
tt 5cm = Température de l'air 5cm
tt -5cm = Température de l'air -5cm
tt -20cm = Température de l'air -20cm
tt -100cm = Température de l'air -100cm
ff = Vitesse du vent
fx = gusts
dd = Direction du vent
ppp = reduced air pressure
vv = visibility
sd = Ensoleillement
rr = Quantités de précipitations

stations d'obs. à proximité